Regional Weather Roundup
Issued by NWS

Home | Current Version | Previous Version | Text Only | Print | Product List | Glossary On
Versions: 1 2 3 4 5 6 7 8 9 10 11 12 13 14 15 16 17 18 19 20 21 22 23 24 25 26 27 28
000
ASUS46 KPQR 162110
RWROR

OREGON REGIONAL WEATHER ROUNDUP
NATIONAL WEATHER SERVICE PORTLAND OR
100 PM PST SAT DEC 16 2017

NOTE: "FAIR" INDICATES FEW OR NO CLOUDS BELOW 12,000 FEET WITH
NO SIGNIFICANT WEATHER AND/OR OBSTRUCTIONS TO VISIBILITY.

ORZ001>013-162200-
NORTHWEST OREGON


CITY           SKY/WX    TMP DP  RH WIND       PRES   REMARKS
ASTORIA        CLOUDY    47  45  93 CALM      30.33F
NEWPORT        CLOUDY    46  45  93 SW5       30.38F FOG
PORTLAND       CLOUDY    43  41  93 E6        30.36F FOG
VANCOUVER WA   CLOUDY    44  42  93 CALM      30.36F
SCAPPOOSE      CLOUDY    40  39  97 CALM      30.35F FOG
HILLSBORO      CLOUDY    39  36  89 NW3       30.36F FOG
AURORA         CLOUDY    45  42  89 CALM      30.36F FOG
MCMINNVILLE    CLOUDY    42  40  92 CALM      30.36F FOG
SALEM          CLOUDY    46  39  76 S6        30.34F
CORVALLIS      CLOUDY    42  39  89 SE5       30.36F
EUGENE         PTSUNNY   43  40  89 S3        30.36F
$$

ORZ021-028-162200-
SOUTHWEST OREGON


CITY           SKY/WX    TMP DP  RH WIND       PRES   REMARKS
NORTH BEND     PTSUNNY   48  43  82 CALM      30.36F
BROOKINGS      SUNNY     53  29  39 VRB7G16   30.27F
ROSEBURG       CLOUDY    39  37  92 CALM      30.36F
SEXTON SUMMIT  CLOUDY    36  28  73 CALM      30.23F
GRANTS PASS    FAIR      43  37  81 CALM      30.35F
MEDFORD        PTSUNNY   44  31  60 S3        30.29F
$$

ORZ014>016-041-162200-
COLUMBIA GORGE


CITY           SKY/WX    TMP DP  RH WIND       PRES   REMARKS
TROUTDALE      CLOUDY    45  41  86 N5        30.36F
HOOD RIVER     PTSUNNY   45  36  70 NW7       30.29F
THE DALLES     MOSUNNY   50  36  58 N12       30.28F
$$

ORZ029>031-041-044-049-050-061>064-502-503-505>511-162200-
EASTERN OREGON


CITY           SKY/WX    TMP DP  RH WIND       PRES   REMARKS
MADRAS         MOSUNNY   43  43 100 NW7       30.26F
REDMOND        MOSUNNY   41  25  53 NW8       30.22F
BEND           MOSUNNY   41  21  45 N7        30.23F
PRINEVILLE     MOSUNNY   37  27  65 NW8       30.23F WCI  31
KLAMATH FALLS  SUNNY     40  16  37 NW12      30.19F WCI  33
LAKEVIEW       MOSUNNY   33  21  61 N13       30.18S WCI  24
HERMISTON      PTSUNNY   34  34 100 CALM      30.29F FOG
PENDLETON      MOSUNNY   40  33  76 NW9       30.25F WCI  34
JOHN DAY       CLOUDY    33  28  80 W3        30.21S
MEACHAM        CLOUDY    31  27  85 VRB6      30.18S WCI  25
LA GRANDE      CLOUDY    35  26  69 NW10      30.22F WCI  27
BAKER CITY     SUNNY     38  22  52 NW23G29   30.16F WCI  27
BURNS          MOSUNNY   33  21  61 W15       30.16F WCI  23
ROME             N/A     34  23  64 NW9       30.11F WCI  27
ONTARIO        SUNNY     30  27  88 NE5       30.17F WCI  25
$$




USA.gov is the U.S. government's official web portal to all federal, state and local government web resources and services.